STARLINK-31238, 58853

Orbit data source: Space-Track

STARLINK-31238, 58853 is a payload satellite owned by SpaceX/Seattle (US) in LEO that was launched on Mon, 29 Jan 2024 UTC via an FALCON 9 launch vehicle from the Air Force Eastern Test Range (AFETR). Payload-class satellites include a variety of spacecraft equipped with specific instruments for various scientific and technological missions. These include communications satellites like Starlink; space stations such as the ISS; scientific satellites like the Hubble; Earth observation satellites from companies like Planet Labs, Umbra, and HawkEye 360; GPS; miniature CubeSats for education and research; and military/defense satellites.

Loading next visibility...
Identifier
58853, 2024-019A
Orbit
LEO
Country
Flag of USUS
Related business
Manufacturer
SpaceX/Seattle
Mission
Operational Commercial Communications
Bus & Motor
STARLINK V2M, Unknown motor
Mass
730 kg wet, ~700 kg dry
Launch date (UTC)
2024-01-29 (2 years ago)
Launch vehicle
FALCON 9
Launch site
Air Force Eastern Test Range (AFETR)
Object type
Payload
Rocket body
Debris
Shape & HBR
Box + 2 Pan, 17.7 m
Radar Cross Section
33.884 m², Large (>1 m²)

Expand to show TLE details & history
Last TLE update: 2 days ago

TLE from 2 days ago
0 STARLINK-31238
1 58853U 24019A   26171.01087865  .00001079  00000-0  48745-4 0  9996
2 58853  43.0059  30.8463 0001780 266.8646  93.2003 15.27583175134739
Epoch: 2026-06-20T00:15Z
TLE epoch observation values (Epoch: 2026-06-20T00:15:39.915Z)
Latitude
0.00005°
Longitude
118.69841°
Altitude
482.884 km
Speed
7.626 km/s
True Right ascension
02h 03m 23s
True Declination
0° 00' 00"
Sunlit
Object was in daylight at epoch
Visualization orbit readout
Latitude
Unknown
Longitude
Unknown
Altitude
Unknown
Speed
Unknown
Apparent Right ascension
Unknown
Apparent Declination
Unknown
Sunlit
N/A
Visualization observer readout
Local Sidereal Time
23:07:19
Azimuth
Unknown
Elevation
Unknown
Doppler factor
Unknown
Orbital elements
Apogee altitude
486.205 km
Perigee altitude
483.762 km
Semi-major axis
6,863.121 km
Eccentricity
0.00018
Inclination
43.0059°
RAAN
30.8463°
Arg. of periapsis
266.8646°
True anomaly
93.22067°
Mean anomaly
93.2003°
Eccentric anomaly
93.21048°
Mean motion
3.81734 °/min
Orbital period
94.31 mins
BSTAR
0.000048745
Loading maneuver chart data...
Computing Atmospheric mass density...
Loading historical data...
Loading historical data...
Loading historical data...
Loading historical data...
Loading historical data...
Loading historical data...
Loading historical data...

Documentation

Showing up to 5 results
|